ITY1519 LIEE-LIPX

Flight info

Callsign ITY1519
Flight time 1h 9m
Altitude 34000
Route KOVAS DCT DEXUL DCT ABIDU DCT MAMAR DCT GILIO DCT EROVI DCT BEROK L153 OSBUL
Aircraft A319/M-SDE3FGHIRWY/LB1

Departure

Time 2026-05-03 21:15
Airport Cagliari Elmas Airport (LIEE)

Arrival

Time 2026-05-03 22:24
Airport Verona Villafranca Valerio Catullo Airport (LIPX)
Time Latitude Longitude Altitude Speed Heading
2026-05-03 20:52 39.25029 9.05952 15 ft 0 kts 226°
2026-05-03 21:10 39.25028 9.05951 15 ft 1 kts 226°
2026-05-03 21:10 39.25024 9.05946 17 ft 1 kts 226°
2026-05-03 21:10 39.25015 9.05934 16 ft 3 kts 226°
2026-05-03 21:11 39.25001 9.05889 15 ft 7 kts 274°
2026-05-03 21:11 39.25035 9.05832 15 ft 10 kts 317°
2026-05-03 21:11 39.25094 9.05766 15 ft 13 kts 317°
2026-05-03 21:11 39.25171 9.05675 15 ft 17 kts 321°
2026-05-03 21:12 39.25273 9.05557 15 ft 22 kts 320°
2026-05-03 21:12 39.25388 9.05424 15 ft 22 kts 317°
2026-05-03 21:12 39.25504 9.05290 15 ft 22 kts 318°
2026-05-03 21:12 39.25619 9.05157 15 ft 22 kts 317°
2026-05-03 21:13 39.25735 9.05022 15 ft 22 kts 318°
2026-05-03 21:13 39.25850 9.04890 15 ft 23 kts 317°
2026-05-03 21:13 39.25967 9.04753 15 ft 23 kts 319°
2026-05-03 21:13 39.26085 9.04617 15 ft 23 kts 317°
2026-05-03 21:14 39.26117 9.04432 15 ft 22 kts 248°
2026-05-03 21:14 39.25999 9.04441 14 ft 21 kts 138°
2026-05-03 21:14 39.25810 9.04660 16 ft 68 kts 138°
2026-05-03 21:14 39.25276 9.05277 14 ft 134 kts 139°
2026-05-03 21:15 39.24498 9.06179 330 ft 156 kts 140°
2026-05-03 21:15 39.23678 9.07106 992 ft 158 kts 140°
2026-05-03 21:15 39.22859 9.08042 1705 ft 157 kts 137°
2026-05-03 21:15 39.22010 9.09031 2190 ft 175 kts 137°
2026-05-03 21:16 39.21053 9.10150 2545 ft 197 kts 137°
2026-05-03 21:16 39.19990 9.11388 2994 ft 214 kts 138°
2026-05-03 21:16 39.18779 9.12557 3710 ft 221 kts 159°
2026-05-03 21:16 39.17259 9.12629 4464 ft 227 kts 199°
2026-05-03 21:17 39.15931 9.11506 5225 ft 231 kts 223°
2026-05-03 21:17 39.15200 9.10507 5819 ft 232 kts 229°
2026-05-03 21:17 39.13861 9.08315 7004 ft 235 kts 238°
2026-05-03 21:17 39.13443 9.06320 7830 ft 240 kts 269°
2026-05-03 21:18 39.13885 9.04198 8460 ft 261 kts 299°
2026-05-03 21:18 39.15163 9.02381 8975 ft 284 kts 314°
2026-05-03 21:18 39.16648 9.00653 9786 ft 291 kts 315°
2026-05-03 21:18 39.18186 8.98922 10612 ft 295 kts 315°
2026-05-03 21:19 39.19743 8.97176 11454 ft 297 kts 315°
2026-05-03 21:19 39.21308 8.95416 12294 ft 300 kts 316°
2026-05-03 21:19 39.23089 8.93943 13125 ft 309 kts 330°
2026-05-03 21:19 39.25172 8.93044 13679 ft 329 kts 346°
2026-05-03 21:20 39.27542 8.92772 13863 ft 354 kts 354°
2026-05-03 21:20 39.30056 8.92605 14278 ft 367 kts 354°
2026-05-03 21:20 39.32622 8.92434 14920 ft 371 kts 354°
2026-05-03 21:20 39.35210 8.92261 15616 ft 374 kts 354°
2026-05-03 21:21 39.37816 8.92084 16374 ft 376 kts 353°
2026-05-03 21:21 39.40439 8.91972 17078 ft 380 kts 358°
2026-05-03 21:21 39.43083 8.92429 17769 ft 388 kts 10°
2026-05-03 21:21 39.45654 8.93588 18457 ft 396 kts 22°
2026-05-03 21:22 39.48101 8.95293 19004 ft 402 kts 26°
2026-05-03 21:22 39.50552 8.97051 19584 ft 405 kts 26°
2026-05-03 21:22 39.53027 8.98821 20204 ft 407 kts 26°
2026-05-03 21:22 39.55515 9.00597 20823 ft 409 kts 26°
2026-05-03 21:23 39.58011 9.02378 21426 ft 411 kts 26°
2026-05-03 21:23 39.60520 9.04167 22044 ft 413 kts 26°
2026-05-03 21:23 39.63015 9.05937 22643 ft 415 kts 25°
2026-05-03 21:23 39.65670 9.07384 23210 ft 414 kts 15°
2026-05-03 21:24 39.68450 9.08360 23770 ft 414 kts 12°
2026-05-03 21:24 39.71259 9.09294 24222 ft 417 kts 12°
2026-05-03 21:24 39.74072 9.10235 24666 ft 420 kts 12°
2026-05-03 21:24 39.76918 9.11191 25076 ft 422 kts 12°
2026-05-03 21:25 39.79771 9.12151 25484 ft 425 kts 12°
2026-05-03 21:25 39.82639 9.13133 25890 ft 429 kts 14°
2026-05-03 21:25 39.85433 9.14548 26278 ft 434 kts 24°
2026-05-03 21:25 39.88039 9.16571 26663 ft 439 kts 34°
2026-05-03 21:26 39.90437 9.19068 27042 ft 443 kts 38°
2026-05-03 21:26 39.92829 9.21619 27426 ft 446 kts 38°
2026-05-03 21:26 39.95238 9.24181 27833 ft 448 kts 38°
2026-05-03 21:26 39.97661 9.26758 28223 ft 451 kts 38°
2026-05-03 21:27 40.00095 9.29351 28609 ft 454 kts 38°
2026-05-03 21:27 40.02519 9.31939 28973 ft 456 kts 38°
2026-05-03 21:27 40.04982 9.34574 29329 ft 459 kts 38°
2026-05-03 21:27 40.07457 9.37227 29689 ft 461 kts 38°
2026-05-03 21:28 40.09955 9.39902 30065 ft 464 kts 38°
2026-05-03 21:28 40.12459 9.42588 30364 ft 467 kts 38°
2026-05-03 21:28 40.14975 9.45292 30641 ft 469 kts 38°
2026-05-03 21:28 40.17498 9.48010 30945 ft 470 kts 38°
2026-05-03 21:29 40.20024 9.50739 31246 ft 472 kts 38°
2026-05-03 21:29 40.22565 9.53483 31541 ft 474 kts 38°
2026-05-03 21:29 40.25110 9.56233 31861 ft 475 kts 38°
2026-05-03 21:29 40.27652 9.58986 32271 ft 474 kts 38°
2026-05-03 21:30 40.30187 9.61729 32684 ft 473 kts 38°
2026-05-03 21:30 40.32725 9.64478 33081 ft 472 kts 38°
2026-05-03 21:30 40.35253 9.67215 33470 ft 471 kts 38°
2026-05-03 21:30 40.37779 9.69949 33872 ft 470 kts 38°
2026-05-03 21:31 40.40306 9.72688 34113 ft 470 kts 38°
2026-05-03 21:31 40.42805 9.75404 34158 ft 463 kts 38°
2026-05-03 21:31 40.47692 9.80730 34155 ft 458 kts 38°
2026-05-03 21:32 40.52588 9.86072 34154 ft 458 kts 38°
2026-05-03 21:32 40.57492 9.91427 34153 ft 458 kts 38°
2026-05-03 21:33 40.62389 9.96783 34153 ft 458 kts 38°
2026-05-03 21:33 40.67284 10.02153 34140 ft 458 kts 38°
2026-05-03 21:34 40.72174 10.07529 34148 ft 457 kts 38°
2026-05-03 21:34 40.77055 10.12904 34151 ft 457 kts 38°
2026-05-03 21:35 40.81936 10.18283 34153 ft 457 kts 38°
2026-05-03 21:35 40.86805 10.23666 34163 ft 456 kts 38°
2026-05-03 21:36 40.91622 10.29008 34177 ft 454 kts 38°
2026-05-03 21:37 41.00879 10.38821 34172 ft 450 kts 31°
2026-05-03 21:37 41.06101 10.43399 34163 ft 450 kts 31°
2026-05-03 21:38 41.11280 10.47964 34173 ft 449 kts 31°
2026-05-03 21:38 41.16480 10.52558 34173 ft 449 kts 31°
2026-05-03 21:39 41.21673 10.57158 34171 ft 448 kts 31°
2026-05-03 21:39 41.26861 10.61755 34161 ft 448 kts 31°
2026-05-03 21:40 41.32042 10.66353 34164 ft 448 kts 31°
2026-05-03 21:40 41.37227 10.70967 34154 ft 448 kts 31°
2026-05-03 21:41 41.42418 10.75608 34158 ft 449 kts 31°
2026-05-03 21:41 41.47574 10.80214 34160 ft 449 kts 31°
2026-05-03 21:42 41.52762 10.84850 34158 ft 449 kts 31°
2026-05-03 21:42 41.57968 10.89509 34166 ft 450 kts 31°
2026-05-03 21:43 41.63161 10.94180 34160 ft 450 kts 31°
2026-05-03 21:43 41.68352 10.98864 34175 ft 450 kts 31°
2026-05-03 21:44 41.73545 11.03556 34177 ft 450 kts 31°
2026-05-03 21:44 41.79117 11.07122 34177 ft 441 kts 12°
2026-05-03 21:45 41.85132 11.07998 34170 ft 432 kts 352°
2026-05-03 21:45 41.90985 11.06537 34169 ft 427 kts 343°
2026-05-03 21:46 41.96790 11.04775 34164 ft 428 kts 343°
2026-05-03 21:46 42.02606 11.03022 34163 ft 428 kts 343°
2026-05-03 21:47 42.08376 11.01275 34165 ft 428 kts 343°
2026-05-03 21:47 42.14189 10.99506 34173 ft 428 kts 343°
2026-05-03 21:48 42.20004 10.97730 34172 ft 428 kts 343°
2026-05-03 21:48 42.25815 10.95955 34172 ft 428 kts 343°
2026-05-03 21:49 42.31623 10.94171 34170 ft 428 kts 343°
2026-05-03 21:49 42.37430 10.92365 34173 ft 427 kts 342°
2026-05-03 21:50 42.43166 10.90283 34165 ft 426 kts 340°
2026-05-03 21:50 42.48820 10.88031 34163 ft 426 kts 340°
2026-05-03 21:51 42.54518 10.85797 34165 ft 426 kts 340°
2026-05-03 21:51 42.60226 10.83620 34169 ft 425 kts 340°
2026-05-03 21:52 42.65926 10.81450 34170 ft 425 kts 340°
2026-05-03 21:52 42.71620 10.79262 34164 ft 425 kts 340°
2026-05-03 21:53 42.77305 10.77059 34170 ft 424 kts 340°
2026-05-03 21:53 42.82986 10.74870 34167 ft 424 kts 340°
2026-05-03 21:54 42.88667 10.72689 34166 ft 424 kts 340°
2026-05-03 21:54 42.94344 10.70494 34180 ft 424 kts 340°
2026-05-03 21:55 43.00014 10.68282 34163 ft 424 kts 340°
2026-05-03 21:55 43.05656 10.66088 34163 ft 424 kts 340°
2026-05-03 21:56 43.11332 10.63876 34161 ft 424 kts 340°
2026-05-03 21:56 43.17001 10.61666 34165 ft 424 kts 340°
2026-05-03 21:57 43.22684 10.59453 34161 ft 424 kts 340°
2026-05-03 21:57 43.28360 10.57230 34157 ft 424 kts 340°
2026-05-03 21:58 43.34045 10.54987 34150 ft 425 kts 340°
2026-05-03 21:58 43.39738 10.52744 34153 ft 426 kts 340°
2026-05-03 21:59 43.45435 10.50505 34152 ft 426 kts 340°
2026-05-03 21:59 43.51142 10.48263 34153 ft 426 kts 340°
2026-05-03 22:00 43.56846 10.46014 34161 ft 426 kts 340°
2026-05-03 22:00 43.62512 10.43769 34150 ft 426 kts 340°
2026-05-03 22:01 43.68214 10.41503 34155 ft 426 kts 340°
2026-05-03 22:01 43.71076 10.40362 33830 ft 431 kts 340°
2026-05-03 22:01 43.73975 10.39201 33054 ft 432 kts 340°
2026-05-03 22:02 43.76850 10.38058 32503 ft 427 kts 340°
2026-05-03 22:02 43.79695 10.36932 31949 ft 424 kts 340°
2026-05-03 22:02 43.82520 10.35808 31398 ft 420 kts 340°
2026-05-03 22:02 43.85321 10.34687 30862 ft 417 kts 340°
2026-05-03 22:03 43.88136 10.33771 30325 ft 418 kts 348°
2026-05-03 22:03 43.91040 10.33485 29730 ft 419 kts 358°
2026-05-03 22:03 43.93907 10.33671 29214 ft 416 kts 359°
2026-05-03 22:03 43.96781 10.33870 28686 ft 412 kts 359°
2026-05-03 22:04 43.99635 10.34057 28171 ft 408 kts 359°
2026-05-03 22:04 44.02457 10.34236 27661 ft 405 kts 359°
2026-05-03 22:04 44.05255 10.34415 27169 ft 401 kts 359°
2026-05-03 22:04 44.08035 10.34595 26674 ft 398 kts 359°
2026-05-03 22:05 44.10792 10.34772 26197 ft 395 kts 359°
2026-05-03 22:05 44.13526 10.34949 25718 ft 393 kts 359°
2026-05-03 22:05 44.16253 10.35112 25261 ft 390 kts 358°
2026-05-03 22:05 44.18953 10.34947 24813 ft 386 kts 353°
2026-05-03 22:06 44.21630 10.34716 24367 ft 384 kts 354°
2026-05-03 22:06 44.24287 10.34484 23908 ft 382 kts 353°
2026-05-03 22:06 44.26930 10.34250 23409 ft 380 kts 354°
2026-05-03 22:06 44.29555 10.34013 22958 ft 376 kts 354°
2026-05-03 22:07 44.32114 10.33782 22501 ft 372 kts 354°
2026-05-03 22:07 44.34696 10.33552 22051 ft 369 kts 354°
2026-05-03 22:07 44.37246 10.33329 21604 ft 365 kts 354°
2026-05-03 22:07 44.39769 10.33107 21139 ft 362 kts 354°
2026-05-03 22:08 44.42277 10.32885 20687 ft 360 kts 354°
2026-05-03 22:08 44.44769 10.32664 20237 ft 358 kts 354°
2026-05-03 22:08 44.47242 10.32444 19785 ft 356 kts 354°
2026-05-03 22:08 44.49721 10.32225 19331 ft 355 kts 354°
2026-05-03 22:09 44.52181 10.32007 18882 ft 353 kts 354°
2026-05-03 22:09 44.54635 10.31790 18418 ft 353 kts 354°
2026-05-03 22:09 44.57083 10.31573 17933 ft 351 kts 355°
2026-05-03 22:10 44.61113 10.31218 17153 ft 347 kts 355°
2026-05-03 22:10 44.63514 10.31003 16714 ft 345 kts 355°
2026-05-03 22:10 44.65900 10.30787 16290 ft 343 kts 355°
2026-05-03 22:10 44.68277 10.30577 15861 ft 342 kts 355°
2026-05-03 22:11 44.71413 10.30299 15297 ft 340 kts 355°
2026-05-03 22:11 44.73009 10.30155 15015 ft 339 kts 355°
2026-05-03 22:11 44.76119 10.29872 14449 ft 338 kts 355°
2026-05-03 22:11 44.77705 10.29728 14176 ft 338 kts 355°
2026-05-03 22:12 44.80052 10.29613 13737 ft 337 kts
2026-05-03 22:12 44.82362 10.30147 13293 ft 337 kts 15°
2026-05-03 22:12 44.84500 10.31368 12897 ft 335 kts 28°
2026-05-03 22:12 44.86479 10.33091 12477 ft 333 kts 32°
2026-05-03 22:13 44.88435 10.34830 12043 ft 332 kts 32°
2026-05-03 22:13 44.90382 10.36557 11609 ft 330 kts 32°
2026-05-03 22:13 44.92326 10.38277 11179 ft 329 kts 32°
2026-05-03 22:13 44.94257 10.39989 10742 ft 327 kts 32°
2026-05-03 22:14 44.96180 10.41701 10354 ft 325 kts 32°
2026-05-03 22:14 44.98047 10.43365 10270 ft 311 kts 32°
2026-05-03 22:14 44.99848 10.44970 10142 ft 300 kts 32°
2026-05-03 22:14 45.01594 10.46524 9729 ft 297 kts 32°
2026-05-03 22:15 45.03357 10.48093 8944 ft 300 kts 32°
2026-05-03 22:15 45.05120 10.49664 8272 ft 299 kts 32°
2026-05-03 22:15 45.06870 10.51223 7607 ft 297 kts 32°
2026-05-03 22:15 45.08615 10.52777 6957 ft 295 kts 33°
2026-05-03 22:16 45.10344 10.54318 6252 ft 294 kts 32°
2026-05-03 22:16 45.12072 10.55863 5581 ft 292 kts 33°
2026-05-03 22:16 45.13772 10.57388 4944 ft 287 kts 33°
2026-05-03 22:16 45.15404 10.58852 4815 ft 267 kts 32°
2026-05-03 22:17 45.16907 10.60201 4749 ft 252 kts 33°
2026-05-03 22:17 45.18365 10.61512 4688 ft 238 kts 33°
2026-05-03 22:17 45.19730 10.62739 4604 ft 227 kts 32°
2026-05-03 22:17 45.21002 10.63882 4543 ft 212 kts 32°
2026-05-03 22:18 45.22199 10.64959 4427 ft 195 kts 32°
2026-05-03 22:18 45.23296 10.65944 4339 ft 179 kts 32°
2026-05-03 22:18 45.24278 10.66951 4166 ft 171 kts 40°
2026-05-03 22:18 45.25152 10.68062 3959 ft 167 kts 43°
2026-05-03 22:19 45.25977 10.69199 3747 ft 163 kts 44°
2026-05-03 22:19 45.26763 10.70313 3536 ft 156 kts 44°
2026-05-03 22:19 45.27501 10.71372 3347 ft 145 kts 45°
2026-05-03 22:19 45.28203 10.72378 3148 ft 142 kts 44°
2026-05-03 22:20 45.28890 10.73378 2966 ft 141 kts 45°
2026-05-03 22:20 45.29577 10.74370 2785 ft 140 kts 44°
2026-05-03 22:20 45.30261 10.75357 2604 ft 140 kts 44°
2026-05-03 22:20 45.30943 10.76342 2405 ft 139 kts 45°
2026-05-03 22:21 45.31619 10.77320 2205 ft 138 kts 44°
2026-05-03 22:21 45.32293 10.78295 2025 ft 138 kts 44°
2026-05-03 22:21 45.32954 10.79261 1864 ft 138 kts 44°
2026-05-03 22:21 45.33623 10.80229 1701 ft 137 kts 44°
2026-05-03 22:22 45.34292 10.81192 1520 ft 137 kts 44°
2026-05-03 22:22 45.34955 10.82158 1341 ft 136 kts 44°
2026-05-03 22:22 45.35611 10.83122 1122 ft 134 kts 44°
2026-05-03 22:22 45.36262 10.84066 954 ft 132 kts 45°
2026-05-03 22:23 45.36904 10.84993 794 ft 131 kts 45°
2026-05-03 22:23 45.37537 10.85911 621 ft 130 kts 45°
2026-05-03 22:23 45.38157 10.86814 426 ft 129 kts 45°
2026-05-03 22:23 45.38784 10.87712 286 ft 127 kts 45°
2026-05-03 22:24 45.39370 10.88559 237 ft 107 kts 46°
2026-05-03 22:24 45.39771 10.89145 240 ft 58 kts 45°
2026-05-03 22:24 45.40000 10.89479 244 ft 45 kts 45°
2026-05-03 22:24 45.40209 10.89782 246 ft 41 kts 45°
2026-05-03 22:25 45.40298 10.90045 245 ft 22 kts 76°
2026-05-03 22:25 45.40334 10.90248 243 ft 16 kts 76°
2026-05-03 22:25 45.40399 10.90382 242 ft 17 kts 45°
2026-05-03 22:25 45.40409 10.90457 242 ft 7 kts 127°
2026-05-03 22:26 45.40379 10.90498 242 ft 3 kts 136°
2026-05-03 22:26 45.40378 10.90500 242 ft 0 kts 136°